Location: Go?cza
(50.3372°N, 19.9313°E)
Time: 23:12:14
(UTC+00:00)

SL-16 R/B - Pass Details

Date: 23 May 2024
Orbit: 985 x 1007 km, 99.7° (Epoch: 22 June)

Event Time Altitude Azimuth Distance (km) Brightness Sun altitude
Rises 00:04:28 0° 134° (SE) 3,726 5.3 -16.4°
Reaches altitude 10° 00:07:05 10° 126° (SE) 2,780 4.7 -16.3°
Maximum altitude 00:12:47 39° 61° (ENE) 1,472 3.9 -15.9°
Drops below altitude 10° 00:18:32 10° 355° (N) 2,794 5.8 -15.6°
Sets 00:21:10 0° 348° (NNW) 3,747 6.5 -15.4°
